Location: White Mills Observatory
(37.5374°N, 86.0303°W)
Time: 18:49:52
(UTC-05:00)

Amateur Radio Satellites - All Passes

Search period start: 23 November 2014 18:19
Search period end: 24 November 2014 18:19
Location: White Mills Observatory, 37.5374°N, 86.0303°W

Satellite Date Start Highest point End Downlink Frequencies (MHz)
Time Altitude Azimuth
CUBESAT XI-V 23 Nov 18:22:22 18:24:28 13° 91° (E) 18:26:33 437.345
MOZHAYETS 4 23 Nov 18:24:07 18:28:26 38° 288° (WNW) 18:32:43
AO-7 23 Nov 18:25:52 18:27:39 11° 272° (W) 18:29:25 29.400- 29.500
PHONESAT 2.4 23 Nov 18:57:25 19:01:04 51° 0° (N) 19:04:42 2401.200-2431.200
PRISM 23 Nov 18:58:40 19:02:55 85° 284° (WNW) 19:07:08 437.425
Cubesat XI-IV 23 Nov 19:13:06 19:17:37 27° 264° (W) 19:22:10 437.490
VERMONT LUNAR 23 Nov 19:19:45 19:23:21 56° 8° (N) 19:26:55 437.305
JAS-2 23 Nov 19:23:10 19:25:43 12° 275° (W) 19:28:18 435.910
STRAND 1 23 Nov 19:23:46 19:28:48 57° 101° (E) 19:33:47 437.568
GONETS M04 23 Nov 19:33:36 19:41:50 41° 75° (ENE) 19:49:57
SHINDAISAT 23 Nov 19:45:26 19:46:19 13° 55° (NE) 19:47:12 437.305
HO-68 23 Nov 19:46:19 19:52:25 31° 63° (ENE) 19:58:31 435.675
AIST 1 23 Nov 19:49:27 19:53:00 24° 89° (E) 19:56:34
CANX-2 23 Nov 19:56:41 19:59:30 18° 68° (ENE) 20:02:19 2200.000
CUBESAT XI-V 23 Nov 19:57:40 20:02:14 55° 286° (WNW) 20:06:45 437.345
CUTE-I 23 Nov 19:59:26 20:00:17 10° 270° (W) 20:01:08 437.470
COMPASS 1 23 Nov 20:08:25 20:10:56 16° 67° (ENE) 20:13:28 437.405
DOVE 4 23 Nov 20:12:48 20:15:12 14° 67° (ENE) 20:17:33 437.250
RS-15 23 Nov 20:18:55 20:26:33 21° 334° (NNW) 20:34:18 29.354- 29.394
PCSat 23 Nov 20:22:04 20:27:18 54° 113° (ESE) 20:32:35 145.827
CUTE 1.7 & AOD 2 23 Nov 20:30:25 20:34:20 39° 73° (ENE) 20:38:16 437.475
PHONESAT 2.4 23 Nov 20:36:20 20:40:04 86° 18° (NNE) 20:43:47 2401.200-2431.200
GOMX 1 23 Nov 20:40:26 20:44:58 38° 73° (ENE) 20:49:13 467.674
BEESAT 3 23 Nov 20:43:10 20:46:51 34° 114° (ESE) 20:50:37 437.485
UKube-1 23 Nov 20:46:13 20:49:15 19° 67° (ENE) 20:52:18 .
BRITE-PL 23 Nov 20:55:08 21:00:19 78° 76° (ENE) 21:05:06 437.365/2234.400
BEESAT 2 23 Nov 20:56:12 21:00:06 43° 115° (ESE) 21:04:04 435.950
VERMONT LUNAR 23 Nov 20:58:19 21:01:52 55° 204° (SSW) 21:05:25 437.305
Oscar 11 23 Nov 20:58:50 21:02:27 27° 70° (ENE) 21:06:04 145.826/435.025
CUBEBUG 2 23 Nov 20:59:18 21:01:52 16° 67° (ENE) 21:04:24 437.445
STRAND 1 23 Nov 21:04:24 21:07:29 16° 297° (WNW) 21:10:33 437.568
UWE-3 23 Nov 21:05:01 21:07:33 16° 67° (ENE) 21:10:03 435.000/436.395/437.385
CINEMA 3 23 Nov 21:06:18 21:10:13 31° 72° (ENE) 21:14:00 145.822/145.860
SEEDS 23 Nov 21:06:29 21:10:40 89° 257° (WSW) 21:14:54 437.485
DX 1 23 Nov 21:17:51 21:22:00 43° 72° (ENE) 21:26:09 434.975-435.025
AIST 2 23 Nov 21:19:09 21:23:02 37° 114° (ESE) 21:26:59 435.215
AIST 1 23 Nov 21:26:58 21:30:33 24° 285° (WNW) 21:34:10
AAUSAT CUBESAT 2 23 Nov 21:28:41 21:32:47 65° 259° (W) 21:36:56 437.432
GONETS M04 23 Nov 21:30:32 21:38:32 41° 273° (W) 21:46:29
CANX-2 23 Nov 21:31:19 21:35:09 34° 263° (W) 21:39:02 2200.000
HO-68 23 Nov 21:32:56 21:39:48 48° 260° (W) 21:46:43 435.675
VELOX 1 23 Nov 21:37:12 21:40:35 21° 68° (ENE) 21:43:58 145.980
COMPASS 1 23 Nov 21:42:28 21:46:21 38° 262° (W) 21:50:15 437.405
ZACube-1 23 Nov 21:44:20 21:48:14 36° 72° (ENE) 21:52:05 437.345
DELFI C3 23 Nov 21:46:51 21:50:54 83° 77° (ENE) 21:55:00 145.870
HUMSAT D 23 Nov 21:47:28 21:50:45 23° 70° (ENE) 21:54:03 437.325/437.525
DOVE 4 23 Nov 21:47:58 21:52:37 52° 260° (W) 21:57:00 437.250
50 SAT 23 Nov 21:53:33 21:56:41 22° 69° (ENE) 21:59:50 437.505
AISAT 23 Nov 22:00:55 22:05:06 39° 72° (ENE) 22:09:16 437.250
PCSat 23 Nov 22:06:57 22:11:03 21° 310° (NW) 22:15:09 145.827
CUTE 1.7 & AOD 2 23 Nov 22:07:57 22:10:25 15° 267° (W) 22:12:53 437.475
TIGRISAT 23 Nov 22:15:17 22:16:56 12° 92° (E) 22:18:35 435.000
PHONESAT 2.4 23 Nov 22:15:34 22:18:37 24° 212° (SSW) 22:21:39 2401.200-2431.200
GOMX 1 23 Nov 22:19:37 22:23:08 20° 265° (W) 22:26:31 467.674
FUNcube-1 23 Nov 22:19:43 22:23:58 84° 258° (WSW) 22:28:10 145.935
UKube-1 23 Nov 22:21:09 22:25:09 35° 262° (W) 22:29:10 .
BEESAT 3 23 Nov 22:22:00 22:25:10 21° 311° (NW) 22:28:22 437.485
CUBEBUG 1 23 Nov 22:24:04 22:27:37 24° 69° (ENE) 22:31:11 437.445
UNISAT 6 23 Nov 22:26:24 22:29:17 17° 94° (E) 22:32:12 437.425
CUBEBUG 2 23 Nov 22:34:12 22:38:16 40° 261° (W) 22:42:15 437.445
Oscar 11 23 Nov 22:35:09 22:38:34 23° 265° (W) 22:42:00 145.826/435.025
NANOSAT C BR1 23 Nov 22:35:34 22:37:34 13° 92° (E) 22:39:33 145.865
BEESAT 2 23 Nov 22:35:46 22:38:36 18° 312° (NW) 22:41:28 435.950
VERMONT LUNAR 23 Nov 22:38:34 22:39:51 12° 218° (SW) 22:41:08 437.305
BRITE-PL 23 Nov 22:38:49 22:39:09 10° 269° (W) 22:39:28 437.365/2234.400
RS-15 23 Nov 22:39:01 22:45:12 16° 12° (NNE) 22:51:28 29.354- 29.394
UWE-3 23 Nov 22:39:45 22:43:47 40° 261° (W) 22:47:45 435.000/436.395/437.385
CINEMA 3 23 Nov 22:44:05 22:47:26 21° 265° (W) 22:50:42 145.822/145.860
QB50P1 23 Nov 22:44:26 22:47:12 17° 94° (E) 22:49:58 145.935-145.965
ANTELSAT 23 Nov 22:53:52 22:57:56 34° 98° (E) 23:02:03 437.575/2403.000
DX 1 23 Nov 22:55:53 22:58:25 15° 267° (W) 23:00:58 434.975-435.025
AIST 2 23 Nov 22:58:34 23:01:47 21° 311° (NW) 23:05:03 435.215
ESTCUBE 1 23 Nov 23:01:56 23:06:26 67° 75° (ENE) 23:10:58 437.505/2401.250
BUGSAT 1 23 Nov 23:07:49 23:11:13 25° 96° (E) 23:14:34 437.445
POPSAT HIP 1 23 Nov 23:08:03 23:11:50 32° 97° (E) 23:15:36 437.405
VELOX 1 23 Nov 23:12:56 23:16:57 32° 262° (W) 23:21:00 145.980
ZACube-1 23 Nov 23:22:05 23:24:43 16° 266° (W) 23:27:20 437.345
HUMSAT D 23 Nov 23:23:04 23:26:28 24° 264° (W) 23:29:52 437.325/437.525
50 SAT 23 Nov 23:28:34 23:31:54 24° 264° (W) 23:35:13 437.505
ISS 23 Nov 23:34:30 23:36:34 16° 129° (SE) 23:38:39 145.825
AISAT 23 Nov 23:38:54 23:41:51 17° 266° (W) 23:44:49 437.250
POLYITAN 1 23 Nov 23:39:43 23:43:57 80° 102° (ESE) 23:48:10 437.675
QB50P2 23 Nov 23:42:46 23:47:01 87° 103° (ESE) 23:51:14 145.880/145.840
TIGRISAT 23 Nov 23:49:39 23:53:58 55° 286° (WNW) 23:58:21 435.000
DUCHIFAT 1 23 Nov 23:50:29 23:54:42 77° 284° (WNW) 23:58:54 145.980
TISAT 1 23 Nov 23:55:17 23:59:30 62° 75° (ENE) 00:03:44 437.305
SPROUT 23 Nov 23:57:22 00:01:36 56° 74° (ENE) 00:05:50 437.525
CUBEBUG 1 24 Nov 00:00:01 00:03:51 28° 264° (W) 00:07:42 437.445
UNISAT 6 24 Nov 00:02:04 00:06:12 40° 288° (WNW) 00:10:24 437.425
NANOSAT C BR1 24 Nov 00:09:39 00:13:41 45° 287° (WNW) 00:17:41 145.865
AUBIESAT-1 24 Nov 00:09:49 00:13:03 24° 63° (ENE) 00:16:30 437.475
M-CUBED/EXP-1 PRIME 24 Nov 00:13:04 00:16:28 28° 64° (ENE) 00:20:10 437.505
BEESAT 24 Nov 00:18:30 00:21:35 17° 65° (ENE) 00:24:40 436.000
QB50P1 24 Nov 00:19:22 00:23:12 35° 288° (WNW) 00:27:01 145.935-145.965
ANTELSAT 24 Nov 00:31:16 00:34:30 20° 292° (WNW) 00:37:47 437.575/2403.000
ESTCUBE 1 24 Nov 00:43:21 00:43:43 10° 270° (W) 00:44:06 437.505/2401.250
BUGSAT 1 24 Nov 00:43:25 00:46:36 22° 291° (WNW) 00:49:44 437.445
POPSAT HIP 1 24 Nov 00:44:32 00:47:31 19° 292° (WNW) 00:50:29 437.405
CUSAT 1 24 Nov 00:44:46 00:49:18 75° 81° (E) 00:55:29 437.405
RS-15 24 Nov 00:51:49 01:02:06 39° 45° (NE) 01:12:43 29.354- 29.394
DANDE 24 Nov 00:59:56 01:04:20 88° 82° (E) 01:10:21 436.750
Oscar 19 24 Nov 01:04:37 01:07:19 14° 92° (E) 01:10:00 437.125/150
ISS 24 Nov 01:09:47 01:12:57 45° 324° (NW) 01:16:08 145.825
ITUPSAT 1 24 Nov 01:10:43 01:15:25 58° 74° (ENE) 01:20:10 437.325
MaSat-1 24 Nov 01:14:18 01:15:47 15° 60° (ENE) 01:17:17 437.345
SWISSCUBE 24 Nov 01:22:32 01:27:20 86° 76° (ENE) 01:32:10 437.505
KKS-1 24 Nov 01:24:22 01:27:03 16° 66° (ENE) 01:29:44 437.445
JUGNU 24 Nov 01:28:15 01:30:24 12° 172° (S) 01:32:34 437.505
SPROUT 24 Nov 01:36:44 01:38:00 11° 269° (W) 01:39:16 437.525
AUBIESAT-1 24 Nov 01:44:40 01:47:57 25° 261° (W) 01:51:28 437.475
M-CUBED/EXP-1 PRIME 24 Nov 01:48:34 01:51:34 21° 262° (W) 01:54:46 437.505
ITAMSAT 1 24 Nov 01:52:08 01:55:07 15° 92° (E) 01:58:06 435.822/435.867
BEESAT 24 Nov 01:54:25 01:59:01 47° 260° (W) 02:03:40 436.000
Gurwin Techsat 1B 24 Nov 02:10:53 02:13:23 13° 91° (E) 02:15:52 435.225
STARS 24 Nov 02:23:21 02:27:34 46° 73° (ENE) 02:31:47 437.465
CUSAT 1 24 Nov 02:31:19 02:32:22 11° 269° (W) 02:33:28 437.405
Oscar 19 24 Nov 02:41:56 02:47:01 61° 287° (WNW) 02:52:06 437.125/150
YUBILEINY 24 Nov 02:42:13 02:50:25 45° 88° (E) 02:58:36 435.215
ISS 24 Nov 02:49:20 02:50:16 11° 343° (NNW) 02:51:12 145.825
ITUPSAT 1 24 Nov 02:51:24 02:53:39 13° 268° (W) 02:55:55 437.325
KKS-1 24 Nov 02:59:03 03:03:19 44° 261° (W) 03:07:35 437.445
RS-15 24 Nov 03:04:01 03:15:05 65° 247° (WSW) 03:26:40 29.354- 29.394
JUGNU 24 Nov 03:15:49 03:18:35 13° 183° (S) 03:21:21 437.505
SRMSAT 24 Nov 03:22:18 03:24:56 13° 175° (S) 03:27:34 437.500
SO-50 24 Nov 03:26:07 03:27:53 12° 107° (ESE) 03:29:41 436.795
ITAMSAT 1 24 Nov 03:29:52 03:34:56 56° 287° (WNW) 03:39:58 435.822/435.867
Gurwin Techsat 1B 24 Nov 03:48:30 03:53:47 67° 286° (WNW) 03:59:01 435.225
MOZHAYETS 4 24 Nov 03:49:03 03:51:38 15° 65° (ENE) 03:54:13
STARS 24 Nov 04:01:58 04:04:16 14° 267° (W) 04:06:34 437.465
HORYU 2 24 Nov 04:07:55 04:12:26 87° 284° (WNW) 04:16:56 437.375
AO-7 24 Nov 04:29:16 04:37:12 46° 101° (E) 04:45:06 29.400- 29.500
YUBILEINY 24 Nov 04:39:20 04:47:16 37° 286° (WNW) 04:55:14 435.215
JAS-2 24 Nov 04:46:47 04:51:32 19° 88° (E) 04:55:55 435.910
SO-50 24 Nov 05:03:22 05:07:49 62° 303° (WNW) 05:12:25 436.795
BEESAT 3 24 Nov 05:05:44 05:08:12 15° 46° (NE) 05:10:38 437.485
SRMSAT 24 Nov 05:10:42 05:13:16 13° 186° (S) 05:15:50 437.500
PCSat 24 Nov 05:12:11 05:16:56 30° 53° (NE) 05:21:38 145.827
BEESAT 2 24 Nov 05:18:58 05:21:55 18° 48° (NE) 05:24:50 435.950
RS-15 24 Nov 05:22:58 05:25:15 11° 264° (W) 05:27:34 29.354- 29.394
MOZHAYETS 4 24 Nov 05:23:58 05:28:24 50° 261° (W) 05:32:54
CUBESAT XI-V 24 Nov 05:25:20 05:26:47 11° 63° (ENE) 05:28:14 437.345
AIST 2 24 Nov 05:43:40 05:46:31 17° 47° (NE) 05:49:21 435.215
PRISM 24 Nov 05:47:35 05:51:40 54° 74° (ENE) 05:55:48 437.425
Cubesat XI-IV 24 Nov 05:53:14 05:56:19 15° 92° (E) 05:59:23 437.490
ISS 24 Nov 06:04:01 06:06:05 15° 24° (NNE) 06:08:09 145.825
AO-7 24 Nov 06:22:16 06:29:47 39° 298° (WNW) 06:37:19 29.400- 29.500
O/OREOS (USA 219) 24 Nov 06:24:07 06:28:18 40° 105° (ESE) 06:32:29 437.305
JAS-2 24 Nov 06:30:10 06:37:16 66° 288° (WNW) 06:43:29 435.910
CUTE-I 24 Nov 06:33:47 06:38:44 38° 98° (E) 06:43:38 437.470
STRAND 1 24 Nov 06:37:37 06:42:43 68° 74° (ENE) 06:47:50 437.568
BEESAT 3 24 Nov 06:42:40 06:46:47 56° 243° (WSW) 06:50:49 437.485
PCSat 24 Nov 06:55:26 07:00:21 36° 250° (WSW) 07:05:14 145.827
BEESAT 2 24 Nov 06:56:25 07:00:25 43° 245° (WSW) 07:04:21 435.950
CUBESAT XI-V 24 Nov 06:58:53 07:03:35 73° 259° (WSW) 07:08:19 437.345
AIST 2 24 Nov 07:21:17 07:25:27 50° 244° (WSW) 07:29:32 435.215
PRISM 24 Nov 07:26:26 07:27:32 11° 269° (W) 07:28:38 437.425
Cubesat XI-IV 24 Nov 07:31:32 07:36:46 59° 287° (WNW) 07:41:57 437.490
AIST 1 24 Nov 07:35:26 07:39:49 67° 82° (E) 07:44:07
ISS 24 Nov 07:39:48 07:43:06 84° 220° (SW) 07:46:24 145.825
O/OREOS (USA 219) 24 Nov 08:04:45 08:07:51 18° 301° (WNW) 08:10:58 437.305
CUTE-I 24 Nov 08:14:20 08:18:33 25° 294° (WNW) 08:22:46 437.470
JAS-2 24 Nov 08:19:02 08:20:41 11° 308° (NW) 08:22:19 435.910
STRAND 1 24 Nov 08:20:10 08:22:20 13° 269° (W) 08:24:31 437.568
GONETS M04 24 Nov 08:31:48 08:40:08 50° 89° (E) 08:48:32
GOMX 1 24 Nov 08:47:12 08:47:38 10° 91° (E) 08:48:03 467.674
SEEDS 24 Nov 08:54:20 08:57:16 18° 94° (E) 09:00:12 437.485
HO-68 24 Nov 09:02:43 09:09:16 37° 98° (E) 09:15:46 435.675
BRITE-PL 24 Nov 09:02:48 09:06:09 23° 96° (E) 09:09:32 437.365/2234.400
AAUSAT CUBESAT 2 24 Nov 09:14:58 09:18:20 23° 95° (E) 09:21:42 437.432
CANX-2 24 Nov 09:18:32 09:22:39 44° 99° (E) 09:26:45 2200.000
UNISAT 6 24 Nov 09:25:40 09:27:17 12° 65° (ENE) 09:28:53 437.425
COMPASS 1 24 Nov 09:28:22 09:32:19 37° 98° (E) 09:36:16 437.405
DELFI C3 24 Nov 09:31:22 09:33:34 14° 93° (E) 09:35:45 145.870
QB50P1 24 Nov 09:37:40 09:38:55 11° 64° (ENE) 09:40:10 145.935-145.965
DOVE 4 24 Nov 09:49:08 09:53:07 43° 99° (E) 09:57:12 437.250
ANTELSAT 24 Nov 09:52:08 09:55:33 24° 69° (ENE) 09:58:59 437.575/2403.000
CUTE 1.7 & AOD 2 24 Nov 09:53:21 09:57:39 77° 284° (WNW) 10:01:56 437.475
BUGSAT 1 24 Nov 09:57:21 09:59:56 16° 67° (ENE) 10:02:30 437.445
POPSAT HIP 1 24 Nov 10:00:04 10:03:13 20° 68° (ENE) 10:06:22 437.405
UKube-1 24 Nov 10:10:50 10:14:58 42° 99° (E) 10:19:03 .
FUNcube-1 24 Nov 10:11:06 10:14:18 21° 95° (E) 10:17:31 145.935
GOMX 1 24 Nov 10:22:02 10:26:04 53° 285° (WNW) 10:30:12 467.674
Oscar 11 24 Nov 10:23:28 10:27:50 72° 102° (ESE) 10:32:10 145.826/435.025
CUBEBUG 2 24 Nov 10:27:06 10:31:09 44° 99° (E) 10:35:18 437.445
SEEDS 24 Nov 10:29:19 10:33:10 34° 288° (WNW) 10:37:01 437.485
GONETS M04 24 Nov 10:29:27 10:37:09 33° 288° (WNW) 10:44:57
POLYITAN 1 24 Nov 10:31:18 10:35:23 46° 73° (ENE) 10:39:28 437.675
UWE-3 24 Nov 10:31:31 10:35:33 42° 99° (E) 10:39:39 435.000/436.395/437.385
QB50P2 24 Nov 10:34:05 10:38:12 50° 74° (ENE) 10:42:20 145.880/145.840
CINEMA 3 24 Nov 10:39:36 10:43:48 79° 283° (WNW) 10:48:08 145.822/145.860
BRITE-PL 24 Nov 10:41:20 10:44:37 23° 290° (WNW) 10:47:55 437.365/2234.400
DUCHIFAT 1 24 Nov 10:41:21 10:45:33 60° 75° (ENE) 10:49:45 145.980
DX 1 24 Nov 10:44:15 10:48:36 75° 284° (WNW) 10:52:54 434.975-435.025
TIGRISAT 24 Nov 10:46:45 10:51:01 80° 258° (WSW) 10:55:17 435.000
HO-68 24 Nov 10:50:23 10:56:54 39° 295° (WNW) 11:03:24 435.675
AAUSAT CUBESAT 2 24 Nov 10:50:25 10:53:57 26° 290° (WNW) 10:57:29 437.432
CANX-2 24 Nov 10:55:48 10:58:12 15° 294° (WNW) 11:00:37 2200.000
ESTCUBE 1 24 Nov 10:58:14 11:01:06 16° 93° (E) 11:03:56 437.505/2401.250
UNISAT 6 24 Nov 10:59:24 11:03:36 55° 260° (W) 11:07:48 437.425
NANOSAT C BR1 24 Nov 11:00:22 11:04:38 79° 258° (WSW) 11:08:54 145.865
COMPASS 1 24 Nov 11:05:02 11:07:45 17° 293° (WNW) 11:10:28 437.405
DELFI C3 24 Nov 11:05:09 11:09:02 40° 287° (WNW) 11:12:55 145.870
VELOX 1 24 Nov 11:05:26 11:09:47 54° 100° (E) 11:14:05 145.980
HUMSAT D 24 Nov 11:08:50 11:12:57 59° 101° (E) 11:17:05 437.325/437.525
QB50P1 24 Nov 11:10:04 11:14:17 60° 259° (W) 11:18:30 145.935-145.965
50 SAT 24 Nov 11:10:47 11:14:44 50° 100° (E) 11:18:42 437.505
ZACube-1 24 Nov 11:10:54 11:15:07 76° 284° (WNW) 11:19:25 437.345
DOVE 4 24 Nov 11:28:26 11:30:34 14° 293° (WNW) 11:32:43 437.250
ANTELSAT 24 Nov 11:28:42 11:32:16 25° 264° (W) 11:35:49 437.575/2403.000
AISAT 24 Nov 11:30:26 11:34:51 76° 285° (WNW) 11:39:15 437.250
BUGSAT 1 24 Nov 11:31:03 11:35:05 41° 261° (W) 11:39:07 437.445
POPSAT HIP 1 24 Nov 11:35:08 11:38:55 30° 263° (W) 11:42:43 437.405
TISAT 1 24 Nov 11:44:56 11:46:16 11° 92° (E) 11:47:35 437.305
FUNcube-1 24 Nov 11:46:59 11:50:39 29° 289° (WNW) 11:54:21 145.935
UKube-1 24 Nov 11:48:08 11:50:46 16° 294° (WNW) 11:53:22 .
SPROUT 24 Nov 11:48:47 11:50:03 11° 91° (E) 11:51:19 437.525
CUBEBUG 1 24 Nov 11:50:35 11:54:55 61° 101° (E) 11:59:12 437.445
SO-50 24 Nov 11:58:54 12:00:00 11° 39° (NE) 12:01:06 436.795
CUBEBUG 2 24 Nov 12:05:13 12:07:31 14° 293° (WNW) 12:09:50 437.445
UWE-3 24 Nov 12:09:22 12:11:45 15° 293° (WNW) 12:14:11 435.000/436.395/437.385
POLYITAN 1 24 Nov 12:09:35 12:11:34 13° 268° (W) 12:13:34 437.675
QB50P2 24 Nov 12:12:44 12:14:24 12° 268° (W) 12:16:03 145.880/145.840
Oscar 19 24 Nov 12:19:40 12:23:02 18° 64° (ENE) 12:26:25 437.125/150
ESTCUBE 1 24 Nov 12:33:51 12:38:08 42° 288° (WNW) 12:42:23 437.505/2401.250
VELOX 1 24 Nov 12:43:49 12:45:53 13° 296° (WNW) 12:47:56 145.980
HUMSAT D 24 Nov 12:47:15 12:48:15 11° 295° (WNW) 12:49:16 437.325/437.525
50 SAT 24 Nov 12:48:07 12:49:37 12° 295° (WNW) 12:51:07 437.505
YUBILEINY 24 Nov 12:55:51 13:01:43 19° 66° (ENE) 13:07:31 435.215
ITAMSAT 1 24 Nov 13:08:06 13:11:54 21° 65° (ENE) 13:15:43 435.822/435.867
ITUPSAT 1 24 Nov 13:14:40 13:17:53 18° 93° (E) 13:21:05 437.325
TISAT 1 24 Nov 13:18:18 13:22:24 51° 286° (WNW) 13:26:27 437.305
SPROUT 24 Nov 13:22:16 13:26:27 54° 286° (WNW) 13:30:36 437.525
SWISSCUBE 24 Nov 13:25:44 13:29:44 26° 96° (E) 13:33:41 437.505
AUBIESAT-1 24 Nov 13:28:26 13:32:49 32° 101° (E) 13:37:05 437.475
CUBEBUG 1 24 Nov 13:29:21 13:30:44 11° 296° (WNW) 13:32:08 437.445
Gurwin Techsat 1B 24 Nov 13:29:46 13:33:25 19° 64° (ENE) 13:37:03 435.225
M-CUBED/EXP-1 PRIME 24 Nov 13:32:12 13:36:48 38° 102° (ESE) 13:41:17 437.505
SO-50 24 Nov 13:36:34 13:41:26 68° 58° (ENE) 13:46:19 436.795
BEESAT 24 Nov 13:56:42 14:01:23 51° 100° (E) 14:06:01 436.000
Oscar 19 24 Nov 13:57:00 14:01:57 51° 260° (W) 14:06:56 437.125/150
CUSAT 1 24 Nov 13:57:52 14:00:42 53° 280° (W) 14:03:16 437.405
DANDE 24 Nov 14:15:54 14:18:41 34° 280° (W) 14:21:10 436.750
ITAMSAT 1 24 Nov 14:46:04 14:51:02 45° 261° (W) 14:56:03 435.822/435.867
YUBILEINY 24 Nov 14:50:48 14:59:32 82° 265° (W) 15:08:11 435.215
ITUPSAT 1 24 Nov 14:51:24 14:55:57 43° 288° (WNW) 15:00:28 437.325
KKS-1 24 Nov 14:52:19 14:56:29 39° 99° (E) 15:00:38 437.445
SWISSCUBE 24 Nov 15:03:23 15:07:32 30° 291° (WNW) 15:11:40 437.505
AUBIESAT-1 24 Nov 15:03:29 15:07:39 28° 296° (WNW) 15:11:45 437.475
HORYU 2 24 Nov 15:04:34 15:08:57 68° 75° (ENE) 15:13:22 437.375
M-CUBED/EXP-1 PRIME 24 Nov 15:07:38 15:11:34 24° 297° (WNW) 15:15:27 437.505
Gurwin Techsat 1B 24 Nov 15:07:48 15:12:57 51° 260° (W) 15:18:08 435.225
PHONESAT 2.4 24 Nov 15:07:54 15:10:52 23° 147° (SSE) 15:13:51 2401.200-2431.200
RS-15 24 Nov 15:16:08 15:24:11 24° 102° (ESE) 15:32:09 29.354- 29.394
SO-50 24 Nov 15:19:13 15:21:25 13° 253° (WSW) 15:23:36 436.795
VERMONT LUNAR 24 Nov 15:25:36 15:29:01 41° 153° (SSE) 15:32:27 437.305
AO-7 24 Nov 15:26:00 15:33:54 52° 66° (ENE) 15:41:51 29.400- 29.500
BEESAT 24 Nov 15:35:52 15:38:47 16° 296° (WNW) 15:41:41 436.000
STARS 24 Nov 15:51:40 15:56:01 64° 285° (WNW) 16:00:21 437.465
MaSat-1 24 Nov 16:14:46 16:17:45 46° 295° (WNW) 16:20:29 437.345
KKS-1 24 Nov 16:29:53 16:32:49 18° 294° (WNW) 16:35:44 437.445
O/OREOS (USA 219) 24 Nov 16:35:42 16:40:06 55° 67° (ENE) 16:44:30 437.305
JAS-2 24 Nov 16:37:39 16:44:50 50° 69° (ENE) 16:52:20 435.910
PHONESAT 2.4 24 Nov 16:45:40 16:49:24 90° 337° (NNW) 16:53:08 2401.200-2431.200
YUBILEINY 24 Nov 16:51:10 16:54:49 13° 284° (WNW) 16:58:29 435.215
VERMONT LUNAR 24 Nov 17:03:51 17:07:27 63° 349° (N) 17:11:04 437.305
Cubesat XI-IV 24 Nov 17:13:07 17:17:13 23° 66° (ENE) 17:21:20 437.490
AO-7 24 Nov 17:19:40 17:26:52 33° 263° (W) 17:34:08 29.400- 29.500
MOZHAYETS 4 24 Nov 17:21:11 17:25:39 44° 99° (E) 17:30:04
RS-15 24 Nov 17:24:14 17:35:14 79° 301° (WNW) 17:46:14 29.354- 29.394
CUTE-I 24 Nov 17:53:40 17:58:52 53° 72° (ENE) 18:04:04 437.470
